N9BID Weather Reports


time (UTC)temp
C
wind
direction
speed
KPH
gust
KPH
rain 1hr
cm
rain 24hr
cm
rain mn
cm
humidity
%
barometer
mb
20260503212342 20 253 4.8 4.8 0.00 0.00 0.00 45 995.1
20260503211839 18 161 8.0 9.7 0.00 0.00 0.00 45 995.2
20260503211336 20 286 9.7 16.1 0.00 0.00 0.00 44 995.5
20260503210831 20 240 11.3 16.1 0.00 0.00 0.00 46 995.5
20260503210329 20 236 6.4 14.5 0.00 0.00 0.00 44 995.6
20260503205824 20 273 6.4 14.5 0.00 0.00 0.00 46 995.5
20260503205320 20 287 6.4 9.7 0.00 0.00 0.00 47 995.5
20260503204817 20 279 4.8 20.9 0.00 0.00 0.00 49 995.6
20260503204315 20 209 3.2 9.7 0.00 0.00 0.00 46 995.5
20260503203812 20 259 6.4 11.3 0.00 0.00 0.00 46 995.4
20260503203309 20 273 6.4 11.3 0.00 0.00 0.00 47 995.7
20260503202806 20 307 9.7 14.5 0.00 0.00 0.00 48 995.7
20260503202304 19 275 11.3 16.1 0.00 0.00 0.00 47 995.9
20260503201801 20 282 6.4 9.7 0.00 0.00 0.00 48 996.0
20260503201258 19 251 11.3 16.1 0.00 0.00 0.00 51 996.0
20260503200756 19 271 8.0 20.9 0.00 0.00 0.00 49 996.1
20260503200251 19 224 11.3 14.5 0.00 0.00 0.00 49 995.9
20260503195749 18 197 8.0 12.9 0.00 0.00 0.00 49 996.2
20260503195246 19 275 6.4 12.9 0.00 0.00 0.00 47 996.4
20260503194743 19 244 9.7 22.5 0.00 0.00 0.00 50 996.4
20260503194239 18 234 9.7 14.5 0.00 0.00 0.00 49 996.2
20260503193735 18 243 9.7 11.3 0.00 0.00 0.00 50 996.2
20260503193231 19 281 6.4 9.7 0.00 0.00 0.00 45 996.3
20260503192727 18 216 6.4 12.9 0.00 0.00 0.00 51 996.4
20260503192222 18 228 3.2 9.7 0.00 0.00 0.00 49 996.5
20260503191719 19 128 9.7 11.3 0.00 0.00 0.00 50 996.7
20260503191216 18 311 8.0 12.9 0.00 0.00 0.00 50 996.4
20260503190713 18 267 9.7 14.5 0.00 0.00 0.00 49 996.2
20260503190210 18 297 4.8 16.1 0.00 0.00 0.00 51 996.5
20260503185708 18 231 14.5 16.1 0.00 0.00 0.00 50 996.4
20260503185202 18 274 6.4 20.9 0.00 0.00 0.00 51 996.3
20260503184657 18 325 6.4 11.3 0.00 0.00 0.00 52 996.6
20260503184154 19 297 3.2 11.3 0.00 0.00 0.00 49 996.6
20260503183650 18 204 0.0 14.5 0.00 0.00 0.00 51 996.8
20260503183148 18 322 6.4 12.9 0.00 0.00 0.00 51 996.6
20260503182646 18 230 8.0 12.9 0.00 0.00 0.00 50 996.7
20260503182144 18 199 3.2 9.7 0.00 0.00 0.00 53 996.7
20260503181640 18 240 8.0 14.5 0.00 0.00 0.00 51 996.9
20260503181137 18 262 8.0 9.7 0.00 0.00 0.00 54 996.9
20260503180634 18 242 6.4 12.9 0.00 0.00 0.00 54 997.0
20260503180132 18 248 4.8 11.3 0.00 0.00 0.00 52 997.0
20260503175629 18 242 9.7 14.5 0.00 0.00 0.00 49 996.8
20260503175126 18 255 6.4 12.9 0.00 0.00 0.00 53 996.9
20260503174622 18 276 8.0 11.3 0.00 0.00 0.00 53 997.3
20260503174120 17 145 6.4 12.9 0.00 0.00 0.00 50 996.9
20260503173615 18 259 6.4 9.7 0.00 0.00 0.00 55 997.0
20260503173111 17 250 3.2 11.3 0.00 0.00 0.00 49 997.2
20260503172608 17 173 6.4 12.9 0.00 0.00 0.00 49 997.0
20260503172106 17 287 8.0 14.5 0.00 0.00 0.00 52 997.2
20260503171602 17 226 3.2 17.7 0.00 0.00 0.00 51 997.2
20260503171100 17 263 8.0 16.1 0.00 0.00 0.00 53 997.3
20260503170556 17 218 6.4 12.9 0.00 0.00 0.00 51 997.3
20260503150948 14 246 16.1 20.9 0.00 0.00 0.00 58 998.2
20260503150445 14 239 9.7 20.9 0.00 0.00 0.00 61 998.3
20260503131338 11 219 4.8 9.7 0.00 0.00 0.00 67 998.9
20260503130835 11 196 9.7 14.5 0.00 0.00 0.00 65 998.6
20260503130333 11 188 11.3 14.5 0.00 0.00 0.00 66 998.8
20260503110727 8 227 6.4 11.3 0.00 0.00 0.00 69 999.3
20260503110224 8 210 3.2 11.3 0.00 0.00 0.00 70 999.5
20260503100149 7 175 0.0 0.0 0.00 0.00 0.00 75 999.5
20260503090109 8 160 0.0 0.0 0.00 0.00 0.00 75 1000.2
20260503081544 8 185 1.6 3.2 0.00 0.00 0.00 73 1000.8
20260503081042 9 188 1.6 1.6 0.00 0.00 0.00 74 1000.9
20260503080538 9 193 1.6 3.2 0.00 0.00 0.00 73 1001.1
20260503072512 10 216 6.4 9.7 0.00 0.00 0.00 64 1001.0
20260503072009 10 218 6.4 11.3 0.00 0.00 0.00 66 1001.3
20260503071506 10 220 4.8 9.7 0.00 0.00 0.00 67 1001.4
20260503071002 10 235 4.8 9.7 0.00 0.00 0.00 66 1001.6
20260503070459 10 236 6.4 11.3 0.00 0.00 0.00 64 1001.6
20260503054923 10 231 8.0 9.7 0.00 0.00 0.00 59 1001.9
20260503054419 10 233 6.4 9.7 0.00 0.00 0.00 60 1001.9
20260503053917 10 207 6.4 9.7 0.00 0.00 0.00 60 1001.8
20260503053415 10 202 6.4 11.3 0.00 0.00 0.00 60 1001.7
20260503052911 10 219 4.8 9.7 0.00 0.00 0.00 60 1002.0
20260503052408 10 245 9.7 12.9 0.00 0.00 0.00 60 1002.0
20260503051904 10 221 6.4 14.5 0.00 0.00 0.00 60 1002.0
20260503051400 10 222 6.4 11.3 0.00 0.00 0.00 61 1002.1
20260503050858 10 239 6.4 12.9 0.00 0.00 0.00 62 1002.1
20260503050354 10 223 9.7 14.5 0.00 0.00 0.00 62 1002.3
20260503045851 10 210 4.8 11.3 0.00 0.00 0.00 62 1002.3
20260503045349 9 204 4.8 6.4 0.00 0.00 0.00 63 1002.2
20260503044845 8 213 1.6 3.2 0.00 0.00 0.00 65 1002.3
20260503044342 8 192 1.6 1.6 0.00 0.00 0.00 67 1002.3
20260503043839 8 177 0.0 1.6 0.00 0.00 0.00 65 1002.5
20260503043336 8 182 1.6 1.6 0.00 0.00 0.00 65 1002.6
20260503042832 8 197 1.6 1.6 0.00 0.00 0.00 66 1002.5
20260503042329 8 177 0.0 1.6 0.00 0.00 0.00 66 1002.5
20260503041825 8 176 0.0 1.6 0.00 0.00 0.00 66 1002.6
20260503041323 8 175 1.6 1.6 0.00 0.00 0.00 64 1002.6
20260503040820 8 171 0.0 0.0 0.00 0.00 0.00 64 1002.5
20260503040318 8 179 0.0 1.6 0.00 0.00 0.00 64 1002.9
20260503035815 8 184 1.6 1.6 0.00 0.00 0.00 64 1002.6
20260503035312 9 187 1.6 1.6 0.00 0.00 0.00 65 1002.7
20260503034809 9 180 1.6 1.6 0.00 0.00 0.00 65 1003.0
20260503034306 9 175 0.0 1.6 0.00 0.00 0.00 64 1003.1
20260503033803 8 187 3.2 3.2 0.00 0.00 0.00 64 1003.2
20260503033300 8 181 1.6 1.6 0.00 0.00 0.00 66 1003.1
20260503032758 9 177 1.6 3.2 0.00 0.00 0.00 66 1003.2
20260503032257 8 182 0.0 1.6 0.00 0.00 0.00 66 1003.1
20260503031754 9 181 0.0 1.6 0.00 0.00 0.00 67 1003.2
20260503031252 9 181 1.6 3.2 0.00 0.00 0.00 66 1003.4
20260503030748 10 184 1.6 3.2 0.00 0.00 0.00 64 1003.3
20260503030245 10 185 1.6 1.6 0.00 0.00 0.00 64 1003.6
20260503025741 10 175 0.0 3.2 0.00 0.00 0.00 65 1003.6
20260503025239 10 176 0.0 1.6 0.00 0.00 0.00 64 1003.6
20260503024736 10 181 1.6 1.6 0.00 0.00 0.00 62 1003.6
20260503024233 11 171 1.6 3.2 0.00 0.00 0.00 59 1003.6
20260503023729 11 193 1.6 3.2 0.00 0.00 0.00 59 1003.6
20260503023226 11 209 3.2 3.2 0.00 0.00 0.00 58 1003.8
20260503022722 11 205 3.2 3.2 0.00 0.00 0.00 59 1003.9
20260503022217 11 193 1.6 4.8 0.00 0.00 0.00 59 1003.8
20260503021714 10 205 3.2 3.2 0.00 0.00 0.00 60 1003.9
20260503021210 10 190 1.6 4.8 0.00 0.00 0.00 60 1004.0
20260503020708 10 176 0.0 1.6 0.00 0.00 0.00 62 1004.1
20260503020205 10 188 0.0 1.6 0.00 0.00 0.00 61 1004.0
20260503015702 10 181 1.6 1.6 0.00 0.00 0.00 63 1004.0
20260503015159 10 180 0.0 1.6 0.00 0.00 0.00 61 1003.8
20260503014654 10 181 0.0 1.6 0.00 0.00 0.00 58 1004.1
20260503014153 11 181 1.6 1.6 0.00 0.00 0.00 58 1004.0
20260503013649 10 201 1.6 1.6 0.00 0.00 0.00 59 1003.9
20260503013147 10 195 1.6 3.2 0.00 0.00 0.00 62 1003.7
20260503012644 10 177 1.6 1.6 0.00 0.00 0.00 60 1004.0
20260503012141 11 180 0.0 1.6 0.00 0.00 0.00 59 1003.9
20260503011637 11 188 1.6 1.6 0.00 0.00 0.00 57 1003.9
20260503011135 11 177 1.6 3.2 0.00 0.00 0.00 55 1004.0
20260503010631 11 198 3.2 4.8 0.00 0.00 0.00 55 1004.1
20260503010128 11 188 1.6 3.2 0.00 0.00 0.00 56 1004.1
20260503005625 11 205 3.2 3.2 0.00 0.00 0.00 54 1004.2
20260503005122 11 202 1.6 3.2 0.00 0.00 0.00 55 1004.4
20260503004618 12 210 3.2 3.2 0.00 0.00 0.00 53 1004.3
20260503004117 12 185 1.6 3.2 0.00 0.00 0.00 52 1004.3
20260503003614 12 221 1.6 3.2 0.00 0.00 0.00 51 1004.3
20260503003111 12 224 6.4 6.4 0.00 0.00 0.00 51 1004.4
20260503002608 12 244 1.6 3.2 0.00 0.00 0.00 50 1004.4
20260503002104 12 179 1.6 6.4 0.00 0.00 0.00 48 1004.4
20260503001600 12 245 4.8 9.7 0.00 0.00 0.00 48 1004.4
20260503001058 13 237 4.8 11.3 0.00 0.00 0.00 48 1004.3
20260503000555 13 264 4.8 6.4 0.00 0.00 0.00 47 1004.5
20260503000052 13 198 1.6 4.8 0.00 0.00 0.00 47 1004.4
20260502235548 13 267 4.8 9.7 0.00 0.00 0.00 45 1004.1
20260502235047 13 201 1.6 9.7 0.00 0.00 0.00 46 1004.5
20260502234542 13 269 6.4 9.7 0.00 0.00 0.00 45 1004.8
20260502234040 13 279 6.4 11.3 0.00 0.00 0.00 43 1004.5
20260502233540 14 240 3.2 6.4 0.00 0.00 0.00 44 1004.6
20260502233038 13 262 3.2 6.4 0.00 0.00 0.00 47 1004.5
20260502232534 13 280 3.2 4.8 0.00 0.00 0.00 48 1004.5
20260502232031 13 237 6.4 11.3 0.00 0.00 0.00 45 1004.7
20260502231528 13 223 3.2 11.3 0.00 0.00 0.00 44 1004.5
20260502231026 13 326 6.4 12.9 0.00 0.00 0.00 44 1004.7
20260502230524 13 276 9.7 12.9 0.00 0.00 0.00 42 1004.9
20260502230023 14 250 6.4 9.7 0.00 0.00 0.00 42 1004.6
20260502225522 13 252 3.2 11.3 0.00 0.00 0.00 43 1004.7
20260502225020 13 249 9.7 14.5 0.00 0.00 0.00 43 1004.7
20260502224516 14 245 4.8 14.5 0.00 0.00 0.00 44 1004.6
20260502224014 15 308 4.8 14.5 0.00 0.00 0.00 44 1004.6
20260502223511 15 252 9.7 17.7 0.00 0.00 0.00 39 1004.7
20260502223009 15 187 6.4 11.3 0.00 0.00 0.00 38 1005.2
20260502222506 15 265 6.4 9.7 0.00 0.00 0.00 41 1004.8
20260502222002 15 300 6.4 9.7 0.00 0.00 0.00 39 1005.0
20260502221458 15 278 6.4 11.3 0.00 0.00 0.00 40 1005.2
20260502220955 15 231 9.7 16.1 0.00 0.00 0.00 40 1004.9
20260502220451 15 273 6.4 11.3 0.00 0.00 0.00 40 1005.0
20260502215948 15 256 6.4 9.7 0.00 0.00 0.00 39 1005.1
20260502215445 15 314 8.0 11.3 0.00 0.00 0.00 39 1005.2
20260502214942 15 305 6.4 12.9 0.00 0.00 0.00 40 1005.3
20260502214439 15 231 6.4 14.5 0.00 0.00 0.00 42 1005.2
20260502213936 15 289 6.4 14.5 0.00 0.00 0.00 41 1005.1
20260502213433 14 214 12.9 16.1 0.00 0.00 0.00 37 1005.2
20260502212931 15 246 12.9 16.1 0.00 0.00 0.00 37 1005.4